Charleston, WV

7:28 PM EDT on August 20, 2019 (GMT -0400)
Yeager Airport

Weather History for KCRW - June, 2019

Change the Weather History Date:

Thursday, June 13, 2019

  Actual Average Record
Temperature  
Mean Temperature 63 °F 72 °F  
Max Temperature 71 °F 82 °F 95 °F (1984)
Min Temperature 54 °F 61 °F 45 °F (1974)
Degree Days  
Heating Degree Days 2 0  
Month to date heating degree days 4 10  
Since 1 June heating degree days 4 10  
Since 1 July heating degree days 4148 4475  
Cooling Degree Days 0 7  
Month to date cooling degree days 52 73  
Year to date cooling degree days 248 183  
Since 1 June cooling degree days 52 73  
Growing Degree Days 13 (Base 50)    
Moisture  
Dew Point 54 °F    
Average Humidity 73    
Maximum Humidity 93    
Minimum Humidity 53    
Precipitation  
Precipitation 0.79 in 0.14 in 1.81 in (1943)
Month to date precipitation 2.02 1.94  
Year to date precipitation 24.25 20.08  
Sea Level Pressure  
Sea Level Pressure 29.85 in    
Wind  
Wind Speed 8 mph (SW)    
Max Wind Speed 29 mph    
Max Gust Speed 42 mph    
Visibility 9 miles    
Events Rain , Hail , Thunderstorm    
T = Trace of Precipitation, MM = Missing Value Source: NWS Daily Summary

Daily Weather History Graph

Daily Weather History Graph

Search for Another Location

Airport or City:

Astronomy

Jun. 13, 2019 Rise Set
Actual Time 6:02 AM EDT 8:50 PM EDT
Civil Twilight 5:30 AM EDT 9:22 PM EDT
Nautical Twilight 4:50 AM EDT 10:02 PM EDT
Astronomical Twilight 4:05 AM EDT 10:47 PM EDT
Moon 5:07 PM EDT (6/13) 3:43 AM EDT (6/13)
Length of Visible Light 15h 52m
Length of Day
14h 48m
Waxing Gibbous, 85% of the Moon is Illuminated
Jun 13
Waxing Gibbous
Jun 17
Full
Jun 25
Last Quarter
Jul 2
New
Jul 9
First Quarter

Hourly Weather History & Observations

Time (EDT) Temp. Dew Point Humidity Pressure Visibility Wind Dir Wind Speed Gust Speed Precip Events Conditions
12:54 AM 66.0 °F 51.1 °F 59% 29.82 in 10.0 mi Calm Calm - 0.02 in Rain Light Rain
1:54 AM 64.0 °F 53.1 °F 67% 29.81 in 8.0 mi WSW 4.6 mph - 0.00 in Rain Light Rain
2:54 AM 59.0 °F 55.9 °F 90% 29.80 in 4.0 mi SW 5.8 mph - 0.12 in Rain Rain
3:54 AM 59.0 °F 57.0 °F 93% 29.78 in 9.0 mi East 3.5 mph - 0.01 in Rain Light Rain
4:54 AM 59.0 °F 57.0 °F 93% 29.77 in 10.0 mi Calm Calm - 0.00 in Rain Light Rain
5:54 AM 60.1 °F 57.0 °F 90% 29.78 in 10.0 mi South 4.6 mph - 0.02 in Rain Light Rain
6:39 AM 60.1 °F 57.0 °F 90% 29.79 in 10.0 mi South 8.1 mph - 0.00 in   Mostly Cloudy
6:54 AM 60.1 °F 57.0 °F 90% 29.78 in 10.0 mi South 8.1 mph - 0.00 in   Mostly Cloudy
7:35 AM 61.0 °F 57.0 °F 87% 29.81 in 10.0 mi SSW 5.8 mph - N/A   Mostly Cloudy
7:54 AM 61.0 °F 57.0 °F 87% 29.78 in 10.0 mi South 6.9 mph - N/A   Mostly Cloudy
8:47 AM 62.1 °F 57.9 °F 86% 29.81 in 10.0 mi SW 5.8 mph - N/A   Overcast
8:54 AM 62.1 °F 57.9 °F 86% 29.79 in 10.0 mi SW 6.9 mph - N/A   Overcast
9:14 AM 63.0 °F 57.9 °F 84% 29.80 in 10.0 mi SW 8.1 mph - N/A   Mostly Cloudy
9:54 AM 63.0 °F 59.0 °F 87% 29.79 in 10.0 mi SW 9.2 mph - N/A   Overcast
10:54 AM 64.9 °F 57.0 °F 75% 29.78 in 10.0 mi SW 10.4 mph 20.7 mph N/A   Overcast
11:54 AM 64.0 °F 55.9 °F 75% 29.78 in 7.0 mi WSW 17.3 mph 25.3 mph 0.00 in Rain , Thunderstorm Light Thunderstorms and Rain
12:28 PM 66.0 °F 57.9 °F 75% 29.81 in 10.0 mi WSW 15.0 mph 28.8 mph 0.00 in   Mostly Cloudy
12:54 PM 68.0 °F 57.0 °F 68% 29.79 in 10.0 mi SW 12.7 mph 26.5 mph 0.00 in   Mostly Cloudy
1:54 PM 69.1 °F 52.0 °F 54% 29.80 in 10.0 mi WSW 10.4 mph 33.4 mph N/A   Scattered Clouds
2:26 PM 68.0 °F 50.0 °F 52% 29.81 in 10.0 mi WSW 23.0 mph 33.4 mph N/A Thunderstorm Thunderstorm
2:28 PM 68.0 °F 50.0 °F 52% 29.82 in 10.0 mi WSW 21.9 mph 32.2 mph N/A Thunderstorm Thunderstorm
2:39 PM 59.0 °F 53.1 °F 81% 29.86 in 4.0 mi SW 25.3 mph 42.6 mph 0.06 in Rain , Hail , Thunderstorm Heavy Thunderstorms with Hail
2:44 PM 57.9 °F 51.1 °F 78% 29.85 in 7.0 mi WSW 17.3 mph 42.6 mph 0.16 in Rain , Thunderstorm Thunderstorms and Rain
2:54 PM 61.0 °F 53.1 °F 75% 29.84 in 10.0 mi WSW 13.8 mph 25.3 mph 0.16 in Thunderstorm Thunderstorm
3:54 PM 69.1 °F 54.0 °F 58% 29.84 in 10.0 mi WSW 10.4 mph 21.9 mph N/A   Scattered Clouds
4:54 PM 63.0 °F 53.1 °F 70% 29.85 in 10.0 mi WSW 10.4 mph - 0.05 in   Mostly Cloudy
5:07 PM 60.1 °F 54.0 °F 80% 29.88 in 1.8 mi West 4.6 mph - 0.03 in Rain Heavy Rain
5:16 PM 60.1 °F 54.0 °F 80% 29.89 in 10.0 mi WSW 11.5 mph 20.7 mph N/A Rain , Thunderstorm Thunderstorms and Rain
5:50 PM 60.8 °F 55.4 °F 82% 29.90 in 10.0 mi WSW 6.9 mph - 0.12 in   Mostly Cloudy
5:54 PM 61.0 °F 55.0 °F 81% 29.88 in 10.0 mi West 4.6 mph - 0.12 in   Mostly Cloudy
6:33 PM 57.9 °F 51.1 °F 78% 29.93 in 1.8 mi WSW 8.1 mph 18.4 mph 0.01 in Rain , Thunderstorm Heavy Thunderstorms and Rain
6:45 PM 57.0 °F 51.1 °F 81% 29.93 in 3.0 mi WSW 10.4 mph 20.7 mph 0.25 in Rain , Thunderstorm Thunderstorms and Rain
6:54 PM 55.9 °F 51.1 °F 84% 29.92 in 6.0 mi SW 9.2 mph - 0.27 in Rain , Thunderstorm Light Thunderstorms and Rain
7:14 PM 57.9 °F 52.0 °F 81% 29.93 in 10.0 mi SW 6.9 mph - 0.00 in   Mostly Cloudy
7:54 PM 59.0 °F 53.1 °F 81% 29.94 in 10.0 mi SW 8.1 mph - 0.00 in   Overcast
8:54 PM 57.0 °F 52.0 °F 83% 29.97 in 10.0 mi NW 11.5 mph 16.1 mph N/A   Mostly Cloudy
9:54 PM 55.0 °F 48.9 °F 80% 30.01 in 10.0 mi West 6.9 mph - 0.04 in   Overcast
10:54 PM 55.0 °F 48.9 °F 80% 30.04 in 10.0 mi WSW 8.1 mph - N/A   Partly Cloudy
11:54 PM 54.0 °F 48.0 °F 80% 30.06 in 10.0 mi WSW 9.2 mph - N/A   Clear